EW9099 Weather Reports


Display with metric or nautical units.
time (UTC)temp
F
wind
direction
speed
MPH
gust
MPH
rain 1hr
in
rain 24hr
in
rain mn
in
humidity
%
barometer
mb
20260507060011 43 338 1.0 6.0 0.00 0.00 0.00 100 1014.9
20260507054504 42 324 2.0 6.0 0.00 0.00 0.00 100 1014.9
20260507053107 41 315 2.0 6.0 0.00 0.00 0.00 100 1014.8
20260507051556 39 331 2.0 4.0 0.00 0.00 0.00 100 1014.7
20260507050052 38 335 2.0 4.0 0.00 0.00 0.00 100 1014.6
20260507044600 36 355 2.0 4.0 0.00 0.00 0.00 100 1014.5
20260507043051 36 324 2.0 4.0 0.00 0.00 0.00 100 1014.6
20260507041549 36 324 1.0 3.0 0.00 0.00 0.00 100 1014.6
20260507040046 35 327 2.0 4.0 0.00 0.00 0.00 100 1014.4
20260507034544 34 333 2.0 3.0 0.00 0.00 0.00 100 1014.4
20260507033040 34 333 1.0 4.0 0.00 0.00 0.00 100 1014.2
20260507031636 33 335 2.0 4.0 0.00 0.00 0.00 100 1014.1
20260507030035 32 343 2.0 4.0 0.00 0.00 0.00 100 1013.9
20260507024514 32 345 2.0 3.0 0.00 0.00 0.00 100 1013.8
20260507023012 31 46 2.0 3.0 0.00 0.00 0.00 100 1013.6
20260507021517 31 46 0.0 1.0 0.00 0.00 0.00 100 1013.6
20260507020008 32 46 0.0 2.0 0.00 0.00 0.00 100 1013.6
20260507014507 32 46 1.0 3.0 0.00 0.00 0.00 100 1013.6
20260507013005 32 46 0.0 2.0 0.00 0.00 0.00 100 1013.6
20260507011504 32 46 1.0 3.0 0.00 0.00 0.00 100 1013.6
20260507010003 32 46 0.0 1.0 0.00 0.00 0.00 100 1013.5
20260507004502 32 46 0.0 2.0 0.00 0.00 0.00 100 1013.4
20260507003001 32 46 0.0 2.0 0.00 0.00 0.00 100 1013.4
20260507001600 32 46 0.0 2.0 0.00 0.00 0.00 100 1013.5
20260507000058 33 46 1.0 2.0 0.00 0.00 0.00 100 1013.4
20260506234556 33 119 1.0 2.0 0.00 0.00 0.00 100 1013.3
20260506233055 34 119 0.0 0.0 0.00 0.00 0.00 100 1013.4
20260506231552 34 119 0.0 2.0 0.00 0.00 0.00 100 1013.4
20260506230055 35 119 1.0 2.0 0.00 0.00 0.00 100 1013.4
20260506224600 35 119 0.0 0.0 0.00 0.00 0.00 100 1013.3
20260506223045 36 119 0.0 0.0 0.00 0.00 0.00 100 1013.2
20260506221542 37 119 0.0 0.0 0.00 0.00 0.00 100 1013.2
20260506220039 37 119 0.0 0.0 0.00 0.00 0.00 100 1013.2
20260506214546 38 119 0.0 2.0 0.00 0.00 0.00 100 1013.1
20260506213042 39 120 0.0 0.0 0.00 0.00 0.00 100 1012.9
20260506211536 39 120 0.0 1.0 0.00 0.00 0.00 100 1012.9
20260506210039 40 120 0.0 0.0 0.00 0.00 0.00 100 1012.9
20260506204535 40 120 0.0 0.0 0.00 0.00 0.00 100 1013.0
20260506203035 40 120 0.0 2.0 0.00 0.00 0.00 100 1012.9
20260506201533 39 107 0.0 2.0 0.00 0.00 0.00 100 1012.8
20260506200033 39 107 0.0 2.0 0.00 0.00 0.00 100 1012.7
20260506194541 41 115 0.0 2.0 0.00 0.00 0.00 100 1012.6
20260506193029 42 115 0.0 0.0 0.00 0.00 0.00 100 1012.6
20260506191533 43 115 0.0 1.0 0.00 0.00 0.00 100 1012.5
20260506190132 43 115 0.0 0.0 0.00 0.00 0.00 100 1012.5
20260506184528 44 115 0.0 0.0 0.00 0.00 0.00 100 1012.3
20260506183022 45 115 0.0 3.0 0.00 0.00 0.00 100 1012.1
20260506181521 46 115 0.0 2.0 0.00 0.00 0.00 100 1011.9
20260506180025 46 103 3.0 7.0 0.00 0.00 0.00 100 1011.7
20260506174518 46 104 4.0 8.0 0.00 0.00 0.00 100 1011.5
20260506173017 47 115 3.0 9.0 0.00 0.00 0.00 100 1011.5
20260506171520 48 94 6.0 10.0 0.00 0.00 0.00 100 1011.5
20260506170016 48 109 8.0 13.0 0.00 0.00 0.00 100 1011.3
20260506164520 48 118 8.0 12.0 0.00 0.00 0.00 100 1011.3
20260506163017 49 127 9.0 14.0 0.00 0.00 0.00 100 1011.3
20260506161514 49 92 9.0 12.0 0.00 0.00 0.00 100 1011.4
20260506160014 50 126 8.0 13.0 0.00 0.00 0.00 100 1011.5
20260506154514 51 87 8.0 12.0 0.00 0.00 0.00 100 1011.5
20260506153013 51 111 11.0 16.0 0.00 0.00 0.00 100 1011.5
20260506151523 51 117 10.0 14.0 0.00 0.00 0.00 100 1011.5
20260506150012 51 89 8.0 16.0 0.00 0.00 0.00 100 1011.5
20260506144511 52 110 10.0 16.0 0.00 0.00 0.00 100 1011.4
20260506143011 52 98 7.0 14.0 0.00 0.00 0.00 100 1011.3
20260506141509 51 93 10.0 16.0 0.00 0.00 0.00 100 1011.3
20260506140009 51 126 10.0 17.0 0.00 0.00 0.00 75 1011.2
20260506134507 51 89 7.0 15.0 0.00 0.00 0.00 50 1011.2
20260506133006 52 118 11.0 18.0 0.00 0.00 0.00 30 1011.0
20260506131512 52 111 14.0 19.0 0.00 0.00 0.00 26 1010.9
20260506130005 52 109 13.0 20.0 0.00 0.00 0.00 16 1010.7
20260506124602 52 90 10.0 18.0 0.00 0.00 0.00 19 1010.8
20260506123003 52 104 12.0 21.0 0.00 0.00 0.00 25 1010.8
20260506121559 52 105 12.0 19.0 0.00 0.00 0.00 34 1010.7
20260506120057 52 134 14.0 23.0 0.00 0.00 0.00 36 1010.6
20260506114601 52 89 11.0 23.0 0.00 0.00 0.00 41 1010.5
20260506113059 53 62 11.0 17.0 0.00 0.00 0.00 82 1010.5
20260506111552 52 115 11.0 21.0 0.00 0.00 0.00 100 1010.6
20260506110050 53 111 12.0 23.0 0.00 0.00 0.00 100 1010.6
20260506104557 52 91 13.0 21.0 0.00 0.00 0.00 100 1010.7
20260506103057 52 87 15.0 21.0 0.00 0.00 0.00 100 1010.6
20260506101552 53 79 8.0 19.0 0.00 0.00 0.00 100 1010.5
20260506100048 53 119 14.0 21.0 0.00 0.00 0.00 100 1010.5
20260506094546 54 73 11.0 19.0 0.00 0.00 0.00 100 1010.5
20260506093045 54 84 10.0 19.0 0.00 0.00 0.00 100 1010.5
20260506091540 52 28 3.0 14.0 0.00 0.00 0.00 100 1010.5
20260506090036 51 105 7.0 12.0 0.00 0.00 0.00 100 1010.4
20260506084540 50 52 8.0 15.0 0.00 0.00 0.00 100 1010.3
20260506083033 50 73 3.0 13.0 0.00 0.00 0.00 100 1010.4
20260506081530 49 107 10.0 14.0 0.00 0.00 0.00 100 1010.3
20260506073023 46 84 2.0 12.0 0.00 0.00 0.00 100 1009.9
20260506071549 45 77 2.0 11.0 0.00 0.00 0.00 100 1010.1
20260506061511 44 111 2.0 10.0 0.00 0.00 0.00 100 1009.6